| time (UTC) | temp F | wind direction | speed knots | gust knots | rain 1hr in | rain 24hr in | rain mn in | humidity % | barometer mb |
| 20260507060051 | 40 | 348 | 4.3 | 13.0 | 0.00 | 0.39 | 0.00 | 82 | 1012.8 |
| 20260507054512 | 40 | 341 | 6.1 | 14.8 | 0.00 | 0.39 | 0.00 | 82 | 1012.5 |
| 20260507053034 | 41 | 344 | 7.0 | 16.5 | 0.00 | 0.39 | 0.00 | 82 | 1012.8 |
| 20260507051601 | 41 | 339 | 8.7 | 15.6 | 0.00 | 0.39 | 0.00 | 83 | 1012.9 |
| 20260507050034 | 42 | 314 | 7.0 | 16.5 | 0.00 | 0.39 | 0.00 | 84 | 1012.7 |
| 20260507044546 | 42 | 321 | 4.3 | 16.5 | 0.00 | 0.39 | 0.00 | 85 | 1012.6 |
| 20260507043104 | 42 | 306 | 6.1 | 17.4 | 0.00 | 0.39 | 0.00 | 85 | 1012.7 |
| 20260507041531 | 43 | 350 | 4.3 | 13.9 | 0.00 | 0.39 | 0.00 | 85 | 1012.4 |
| 20260507040041 | 43 | 315 | 5.2 | 11.3 | 0.00 | 0.39 | 0.39 | 86 | 1012.1 |
| 20260507034559 | 43 | 318 | 6.1 | 11.3 | 0.00 | 0.39 | 0.39 | 87 | 1011.5 |
| 20260507033034 | 43 | 124 | 0.9 | 5.2 | 0.00 | 0.39 | 0.39 | 86 | 1011.8 |
| 20260507031545 | 42 | 117 | 0.0 | 1.7 | 0.00 | 0.39 | 0.39 | 86 | 1011.8 |
| 20260507030001 | 42 | 165 | 0.9 | 2.6 | 0.00 | 0.39 | 0.39 | 86 | 1012.0 |
| 20260507024528 | 42 | 142 | 0.9 | 2.6 | 0.00 | 0.39 | 0.39 | 86 | 1011.9 |
| 20260507023046 | 42 | 152 | 0.0 | 2.6 | 0.00 | 0.39 | 0.39 | 86 | 1012.0 |
| 20260507021505 | 42 | 269 | 0.9 | 1.7 | 0.00 | 0.39 | 0.39 | 86 | 1011.9 |
| 20260507020105 | 42 | 161 | 0.0 | 2.6 | 0.00 | 0.39 | 0.39 | 86 | 1012.0 |
| 20260507014545 | 42 | 178 | 0.9 | 2.6 | 0.00 | 0.39 | 0.39 | 86 | 1012.2 |
| 20260507013025 | 42 | 314 | 0.9 | 1.7 | 0.00 | 0.39 | 0.39 | 86 | 1012.2 |
| 20260507011541 | 42 | 139 | 1.7 | 2.6 | 0.00 | 0.39 | 0.39 | 86 | 1012.0 |
| 20260507010002 | 42 | 117 | 0.9 | 1.7 | 0.00 | 0.39 | 0.39 | 85 | 1012.0 |
| 20260507004536 | 42 | 124 | 0.9 | 2.6 | 0.00 | 0.39 | 0.39 | 85 | 1011.7 |
| 20260507003055 | 43 | 324 | 0.9 | 4.3 | 0.00 | 0.39 | 0.39 | 85 | 1011.4 |
| 20260507001528 | 43 | 255 | 1.7 | 5.2 | 0.00 | 0.39 | 0.39 | 85 | 1011.5 |
| 20260507000050 | 43 | 314 | 0.9 | 4.3 | 0.00 | 0.39 | 0.39 | 85 | 1011.3 |
| 20260506234533 | 43 | 310 | 2.6 | 6.1 | 0.00 | 0.39 | 0.39 | 85 | 1011.2 |
| 20260506233043 | 43 | 262 | 0.9 | 5.2 | 0.00 | 0.39 | 0.39 | 85 | 1010.9 |
| 20260506231532 | 43 | 286 | 0.9 | 2.6 | 0.00 | 0.39 | 0.39 | 85 | 1010.8 |
| 20260506224543 | 43 | 295 | 1.7 | 8.7 | 0.00 | 0.39 | 0.39 | 84 | 1010.4 |
| 20260506223042 | 43 | 342 | 3.5 | 10.4 | 0.00 | 0.39 | 0.39 | 84 | 1010.3 |
| 20260506221548 | 43 | 324 | 4.3 | 9.6 | 0.00 | 0.39 | 0.39 | 85 | 1010.4 |
| 20260506220014 | 44 | 341 | 3.5 | 8.7 | 0.00 | 0.39 | 0.39 | 86 | 1010.4 |
| 20260506214531 | 43 | 231 | 2.6 | 9.6 | 0.00 | 0.39 | 0.39 | 86 | 1010.2 |
| 20260506213103 | 43 | 319 | 9.6 | 16.5 | 0.00 | 0.39 | 0.39 | 86 | 1010.1 |
| 20260506211519 | 43 | 316 | 7.8 | 14.8 | 0.00 | 0.39 | 0.39 | 86 | 1010.0 |
| 20260506210039 | 43 | 307 | 7.0 | 15.6 | 0.00 | 0.39 | 0.39 | 87 | 1009.9 |
| 20260506204559 | 43 | 323 | 7.0 | 17.4 | 0.00 | 0.39 | 0.39 | 87 | 1009.5 |
| 20260506203021 | 43 | 323 | 6.1 | 18.2 | 0.00 | 0.39 | 0.39 | 86 | 1009.1 |
| 20260506201553 | 44 | 350 | 10.4 | 18.2 | 0.01 | 0.39 | 0.39 | 86 | 1008.9 |
| 20260506200022 | 44 | 310 | 5.2 | 14.8 | 0.01 | 0.50 | 0.39 | 86 | 1008.9 |
| 20260506194619 | 45 | 300 | 3.5 | 14.8 | 0.01 | 0.50 | 0.39 | 86 | 1008.6 |
| 20260506193041 | 45 | 333 | 5.2 | 12.2 | 0.01 | 0.50 | 0.39 | 86 | 1008.4 |
| 20260506191512 | 45 | 324 | 3.5 | 7.8 | 0.01 | 0.49 | 0.38 | 86 | 1008.5 |
| 20260506190035 | 45 | 293 | 6.1 | 13.0 | 0.01 | 0.49 | 0.38 | 86 | 1008.4 |
| 20260506184608 | 45 | 309 | 8.7 | 15.6 | 0.02 | 0.49 | 0.38 | 86 | 1008.3 |
| 20260506183036 | 45 | 307 | 3.5 | 8.7 | 0.02 | 0.49 | 0.38 | 87 | 1007.9 |
| 20260506181552 | 45 | 300 | 5.2 | 9.6 | 0.01 | 0.48 | 0.37 | 86 | 1007.7 |
| 20260506180011 | 45 | 272 | 4.3 | 7.8 | 0.00 | 0.47 | 0.36 | 86 | 1007.5 |
| 20260506174539 | 45 | 269 | 3.5 | 8.7 | 0.01 | 0.47 | 0.36 | 86 | 1007.2 |
| 20260506173053 | 46 | 295 | 3.5 | 10.4 | 0.01 | 0.47 | 0.36 | 87 | 1007.1 |
| 20260506171525 | 45 | 329 | 7.0 | 12.2 | 0.01 | 0.47 | 0.36 | 87 | 1006.9 |
| 20260506170112 | 45 | 316 | 3.5 | 7.8 | 0.01 | 0.47 | 0.36 | 87 | 1007.1 |
| 20260506164540 | 46 | 281 | 3.5 | 7.0 | 0.00 | 0.46 | 0.35 | 87 | 1007.0 |
| 20260506163027 | 45 | 296 | 2.6 | 8.7 | 0.00 | 0.46 | 0.35 | 87 | 1007.0 |
| 20260506160026 | 45 | 260 | 2.6 | 6.1 | 0.01 | 0.46 | 0.35 | 87 | 1006.8 |
| 20260506154546 | 44 | 314 | 4.3 | 7.0 | 0.01 | 0.46 | 0.35 | 86 | 1006.8 |
| 20260506153013 | 45 | 306 | 1.7 | 4.3 | 0.01 | 0.46 | 0.35 | 87 | 1006.8 |
| 20260506151542 | 44 | 122 | 0.9 | 3.5 | 0.00 | 0.45 | 0.34 | 87 | 1006.8 |
| 20260506150015 | 44 | 317 | 1.7 | 4.3 | 0.01 | 0.45 | 0.34 | 87 | 1006.8 |
| 20260506144606 | 44 | 316 | 2.6 | 9.6 | 0.02 | 0.45 | 0.34 | 86 | 1006.6 |
| 20260506143035 | 44 | 320 | 2.6 | 6.1 | 0.03 | 0.45 | 0.34 | 86 | 1006.2 |
| 20260506141551 | 44 | 309 | 2.6 | 6.1 | 0.05 | 0.45 | 0.34 | 86 | 1006.3 |
| 20260506140007 | 44 | 299 | 2.6 | 5.2 | 0.05 | 0.44 | 0.33 | 86 | 1006.4 |
| 20260506134533 | 44 | 340 | 2.6 | 11.3 | 0.09 | 0.43 | 0.32 | 86 | 1006.2 |
| 20260506133052 | 45 | 276 | 2.6 | 8.7 | 0.11 | 0.42 | 0.31 | 86 | 1006.3 |
| 20260506131518 | 46 | 241 | 1.7 | 6.1 | 0.11 | 0.40 | 0.28 | 86 | 1006.4 |
| 20260506130034 | 46 | 164 | 2.6 | 9.6 | 0.12 | 0.39 | 0.28 | 86 | 1006.3 |
| 20260506124551 | 46 | 269 | 3.5 | 11.3 | 0.08 | 0.34 | 0.23 | 85 | 1007.0 |
| 20260506123018 | 47 | 331 | 7.8 | 11.3 | 0.07 | 0.31 | 0.20 | 85 | 1006.4 |
| 20260506121553 | 48 | 1 | 0.9 | 5.2 | 0.07 | 0.28 | 0.18 | 86 | 1005.9 |
| 20260506120042 | 49 | 260 | 3.5 | 7.8 | 0.07 | 0.27 | 0.16 | 86 | 1005.9 |
| 20260506114520 | 49 | 237 | 2.6 | 4.3 | 0.07 | 0.26 | 0.15 | 87 | 1005.9 |
| 20260506113047 | 48 | 172 | 0.9 | 4.3 | 0.06 | 0.24 | 0.13 | 87 | 1005.9 |
| 20260506111504 | 47 | 152 | 0.0 | 2.6 | 0.05 | 0.22 | 0.11 | 86 | 1006.1 |
| 20260506110035 | 47 | 171 | 0.9 | 3.5 | 0.04 | 0.22 | 0.09 | 86 | 1006.1 |
| 20260506104556 | 47 | 107 | 0.9 | 2.6 | 0.05 | 0.21 | 0.08 | 86 | 1006.2 |
| 20260506103029 | 47 | 178 | 0.9 | 2.6 | 0.04 | 0.20 | 0.07 | 86 | 1006.3 |
| 20260506101547 | 47 | 79 | 1.7 | 3.5 | 0.04 | 0.19 | 0.06 | 86 | 1006.2 |
| 20260506100009 | 47 | 241 | 1.7 | 3.5 | 0.03 | 0.17 | 0.05 | 86 | 1006.5 |
| 20260506094533 | 47 | 213 | 0.9 | 5.2 | 0.02 | 0.16 | 0.03 | 86 | 1006.5 |
| 20260506093056 | 47 | 6 | 5.2 | 7.0 | 0.02 | 0.15 | 0.02 | 86 | 1006.3 |
| 20260506091548 | 47 | 274 | 2.6 | 19.1 | 0.02 | 0.15 | 0.02 | 85 | 1006.8 |
| 20260506090043 | 48 | 327 | 1.7 | 4.3 | 0.01 | 0.14 | 0.01 | 86 | 1006.6 |
| 20260506084616 | 47 | 223 | 1.7 | 5.2 | 0.01 | 0.14 | 0.01 | 86 | 1006.6 |
| 20260506083024 | 47 | 238 | 1.7 | 4.3 | 0.00 | 0.13 | 0.00 | 86 | 1006.4 |
| 20260506081544 | 46 | 241 | 1.7 | 3.5 | 0.00 | 0.13 | 0.00 | 86 | 1006.4 |
| 20260506073052 | 45 | 228 | 1.7 | 3.5 | 0.00 | 0.13 | 0.00 | 85 | 1006.7 |
| 20260506071600 | 45 | 219 | 0.9 | 2.6 | 0.00 | 0.13 | 0.00 | 85 | 1006.7 |
| 20260506061558 | 45 | 223 | 1.7 | 3.5 | 0.00 | 0.13 | 0.00 | 84 | 1008.0 |